DECAYED

CZ-4C DEB, 64783 (Decayed)

Orbit data source: Space-Track

CZ-4C DEB, 64783 was space debris in LEO originally from a launch on Thu, 03 Jul 2025 UTC launched from the Xichang Space Center, China (XSC). Debris objects in space refer to the collection of defunct objects orbiting the Earth. Examples of debris include non-operational satellites, rocket bodies, and fragments generated from explosions, collisions, or faulty payload assembly.

Not visible in the next 10 days
Identifier
64783, 2025-145C
Orbit
Decayed
Country
Flag of CNCN / PRC
Related business
Manufacturer
SAST
Mission
Decayed spacecraft
Bus & Motor
Unknown
Mass
1 kg wet, 1 kg dry
Launch date (UTC)
2025-07-03 (1 year ago)
Launch vehicle
Unknown
Launch site
Xichang Space Center, China (XSC)
Object type
Payload
Rocket body
Debris
Shape & HBR
Box, 1.1 m
Radar Cross Section
0.060 m², Medium (>0.1 m² and < 1m²)

Expand to show TLE details & history
Last TLE update: 1 year ago

TLE from 1 year ago
0 CZ-4C DEB
1 64783U 25145C   25239.90994620  .00429860  00000-0  14017+0 0  9996
2 64783  10.9689  79.0709 0024267 190.0541 169.9202 14.35254692  7159
Epoch: 2025-08-27T21:50Z
TLE epoch observation values (Epoch: 2025-08-27T21:50:19.351Z)
Latitude
Longitude
135.10976°
Altitude
788.46 km
Speed
7.454 km/s
True Right ascension
05h 16m 17s
True Declination
0° 00' 00"
Sunlit
Object was in daylight at epoch
Visualization orbit readout
Latitude
Unknown
Longitude
Unknown
Altitude
Unknown
Speed
Unknown
Apparent Right ascension
Unknown
Apparent Declination
Unknown
Sunlit
N/A
Visualization observer readout
Local Sidereal Time
14:37:20
Azimuth
Unknown
Elevation
Unknown
Doppler factor
Unknown
Orbital elements
Apogee altitude
797.422 km
Perigee altitude
762.681 km
Semi-major axis
7,158.188 km
Eccentricity
0.00243
Inclination
10.9689°
RAAN
79.0709°
Arg. of periapsis
190.0541°
True anomaly
169.96872°
Mean anomaly
169.9202°
Eccentric anomaly
169.94448°
Mean motion
3.58376 °/min
Orbital period
100.45 mins
BSTAR
0.14017
Loading maneuver chart data...
Computing Atmospheric mass density...
Loading historical data...
Loading historical data...
Loading historical data...
Loading historical data...
Loading historical data...
Loading historical data...
Loading historical data...
Other satellites on launch #145 in the year 2025 (2025-07-03 UTC)

Documentation

Showing up to 5 results
|